Change the Weather History Date:

Wednesday, January 29, 2014

  Actual Average Record
Temperature  
Mean Temperature 56 °F -  
Max Temperature 72 °F 71 °F - ()
Min Temperature 39 °F 43 °F - ()
Degree Days  
Heating Degree Days 10    
Growing Degree Days 6 (Base 50)    
Moisture  
Dew Point 37 °F    
Average Humidity 48    
Maximum Humidity 70    
Minimum Humidity 21    
Precipitation  
Precipitation 0.00 in 0.00 in - ()
Sea Level Pressure  
Sea Level Pressure 30.08 in    
Wind  
Wind Speed 2 mph ()    
Max Wind Speed 6 mph    
Max Gust Speed -    
Visibility 6.0 miles    
Events      
T = Trace of Precipitation, MM = Missing Value Source: Averaged Metar Reports

Daily Weather History Graph

Daily Weather History Graph

Search for Another Location

Airport or City:

Trip Planner

Search our weather history database for the weather conditions in past years. The results will help you decide how hot, cold, wet, or windy it might be!

Date:

Astronomy

Jan. 29, 2014 Rise Set
Actual Time 6:43 AM EET 5:35 PM EET
Civil Twilight 6:18 AM EET 5:59 PM EET
Nautical Twilight 5:50 AM EET 6:27 PM EET
Astronomical Twilight 5:23 AM EET 6:55 PM EET
Moon 5:00 AM EET (1/29) 4:11 PM EET (1/29)
Length of Visible Light 11h 41m
Length of Day
10h 52m
Waning Crescent, 3% of the Moon is Illuminated
Jan 29
Waning Crescent
Jan 30
New
Feb 6
First Quarter
Feb 15
Full
Feb 22
Last Quarter

Hourly Weather History & Observations

Time (EET) Temp. Windchill Dew Point Humidity Pressure Visibility Wind Dir Wind Speed Gust Speed Precip Events Conditions
12:00 AM 48.2 °F - 35.6 °F 62% 30.04 in - Calm Calm - N/A   Clear
1:00 AM 48.2 °F - 37.4 °F 66% 30.04 in - Calm Calm - N/A   Clear
2:00 AM 46 °F - 33 °F 48% 30.06 in 6 mi South 1.2 mph - -  
2:00 AM 46.4 °F - 32.0 °F 57% 30.04 in - South 1.2 mph - N/A   Clear
3:00 AM 44.6 °F - 32.0 °F 61% 30.04 in - South 1.2 mph - N/A   Clear
4:00 AM 42.8 °F - 33.8 °F 70% 30.04 in - Calm Calm - N/A   Clear
5:00 AM 42 °F - 33 °F 60% 30.07 in 6 mi Calm Calm - -  
5:00 AM 42.8 °F - 32.0 °F 66% 30.04 in - Calm Calm - N/A   Clear
6:00 AM 41.0 °F - 32.0 °F 70% 30.04 in - Calm Calm - N/A   Clear
7:00 AM 41.0 °F 37.1 °F 32.0 °F 70% 30.06 in - SE 5.8 mph - N/A   Clear
8:00 AM 42 °F - 31 °F 56% 30.12 in 6 mi SSE 2.3 mph - -  
8:00 AM 41.0 °F - 32.0 °F 70% 30.09 in - SSE 2.3 mph - N/A   Clear
9:00 AM 51.8 °F - 33.8 °F 50% 30.09 in - South 3.5 mph - N/A   Clear
10:00 AM 60.8 °F - 35.6 °F 39% 30.12 in - SSE 3.5 mph - N/A   Clear
11:00 AM 67 °F - 38 °F 24% 30.12 in 6 mi SW 2.3 mph - -  
11:00 AM 66.2 °F - 39.2 °F 37% 30.12 in - SW 2.3 mph - N/A   Clear
12:00 PM 69.8 °F - 39.2 °F 33% 30.09 in - South 1.2 mph - N/A   Clear
1:00 PM 71.6 °F - 39.2 °F 31% 30.06 in - West 1.2 mph - N/A   Clear
2:00 PM 72 °F - 54 °F 43% 30.06 in 6 mi West 4.6 mph - -  
2:00 PM 71.6 °F - 37.4 °F 29% 30.06 in - West 4.6 mph - N/A   Clear
3:00 PM 71.6 °F - 37.4 °F 29% 30.06 in - NW 5.8 mph - N/A   Clear
4:00 PM 71.6 °F - 37.4 °F 29% 30.06 in - NNW 2.3 mph - N/A   Clear
5:00 PM 69 °F - 38 °F 21% 30.05 in 6 mi North 4.6 mph - -  
5:00 PM 69.8 °F - 37.4 °F 31% 30.06 in - North 4.6 mph - N/A   Clear
6:00 PM 66.2 °F - 37.4 °F 35% 30.06 in - North 2.3 mph - N/A   Clear
7:00 PM 64.4 °F - 37.4 °F 37% 30.09 in - NNW 3.5 mph - N/A   Clear
8:00 PM 59 °F - 42 °F 41% 30.10 in 6 mi NNW 1.2 mph - -  
8:00 PM 59.0 °F - 41.0 °F 51% 30.09 in - NNW 1.2 mph - N/A   Clear
9:00 PM 57.2 °F - 41.0 °F 55% 30.12 in - NW 2.3 mph - N/A   Clear
10:00 PM 57.2 °F - 41.0 °F 55% 30.12 in - NW 1.2 mph - N/A   Clear
11:00 PM 52 °F - 35 °F 41% 30.15 in 6 mi WNW 1.2 mph - -  
11:00 PM 51.8 °F - 35.6 °F 54% 30.12 in - WNW 1.2 mph - N/A   Clear